Torna al catalogo

NAVSTAR 18

USA 50

AttivoNavigazioneMEO
NORAD 20452·PAYLOAD·🇺🇸 United States

Lanciato Jan 24, 1990 da Cape Canaveral Space Force Station

Loading…

Prossimi Passaggi (prossime 24 ore)

TLE

AggiornatoSource: Space-Track

Epoca: Sep 14, 2026, 02:04 UTC

1 20452U 90008A   26257.08615356  .00000007  00000-0  00000-0 0  9993
2 20452  54.8803 130.5346 0013244 283.8120 213.0821  1.89597855258114

Traccia NAVSTAR 18 in tempo reale con AllMySat

Download on the App Store